Time,TemperatureF,DewpointF,PressureIn,WindDirection,WindDirectionDegrees,WindSpeedMPH,WindSpeedGustMPH,Humidity,HourlyPrecipIn,Conditions,Clouds,dailyrainin,SoftwareType,DateUTC
2013-01-08 00:04:00,27.0,23.0,-100.00,SW,221,11.0,15.0,82,0.00,,,-99.99,,2013-01-08 05:04:00,
2013-01-08 00:12:00,27.0,23.0,-100.00,SW,223,11.0,15.0,82,0.00,,,-99.99,,2013-01-08 05:12:00,
2013-01-08 00:22:00,27.0,23.0,-100.00,SW,227,9.0,15.0,82,0.00,,,-99.99,,2013-01-08 05:22:00,
2013-01-08 00:33:00,29.0,25.0,-100.00,SW,234,8.0,15.0,82,0.00,,,-99.99,,2013-01-08 05:33:00,
2013-01-08 00:43:00,29.0,25.0,-100.00,SW,214,9.0,15.0,82,0.00,,,-99.99,,2013-01-08 05:43:00,
2013-01-08 00:53:00,28.0,23.0,-100.00,SW,230,7.0,15.0,81,0.00,,,-99.99,,2013-01-08 05:53:00,
2013-01-08 01:02:00,29.0,25.0,-100.00,WSW,256,6.0,15.0,81,0.00,,,-99.99,,2013-01-08 06:02:00,
2013-01-08 01:12:00,30.0,25.0,-100.00,WSW,242,6.0,15.0,81,0.00,,,-99.99,,2013-01-08 06:12:00,
2013-01-08 01:22:00,28.0,23.0,-100.00,SW,225,9.0,15.0,80,0.00,,,-99.99,,2013-01-08 06:22:00,
2013-01-08 01:33:00,27.0,23.0,-100.00,WSW,244,11.0,15.0,80,0.00,,,-99.99,,2013-01-08 06:33:00,
2013-01-08 01:42:00,29.0,25.0,-100.00,WSW,251,11.0,15.0,82,0.00,,,-99.99,,2013-01-08 06:42:00,
2013-01-08 01:52:00,29.0,25.0,-100.00,SW,232,9.0,15.0,82,0.00,,,-99.99,,2013-01-08 06:52:00,
2013-01-08 02:02:00,29.0,25.0,-100.00,SW,234,8.0,15.0,81,0.00,,,-99.99,,2013-01-08 07:02:00,
2013-01-08 02:12:00,29.0,25.0,-100.00,WSW,245,7.0,15.0,82,0.00,,,-99.99,,2013-01-08 07:12:00,
2013-01-08 02:22:00,27.0,23.0,-100.00,SW,235,9.0,15.0,81,0.00,,,-99.99,,2013-01-08 07:22:00,
2013-01-08 02:32:00,29.0,25.0,-100.00,SW,228,7.0,15.0,82,0.00,,,-99.99,,2013-01-08 07:32:00,
2013-01-08 02:42:00,29.0,25.0,-100.00,SW,218,6.0,15.0,82,0.00,,,-99.99,,2013-01-08 07:42:00,
2013-01-08 02:52:00,28.0,25.0,-100.00,SW,224,7.0,15.0,84,0.00,,,-99.99,,2013-01-08 07:52:00,
2013-01-08 03:02:00,28.0,25.0,-100.00,SW,214,4.0,15.0,84,0.00,,,-99.99,,2013-01-08 08:02:00,
2013-01-08 03:12:00,28.0,25.0,-100.00,West,269,2.0,15.0,84,0.00,,,-99.99,,2013-01-08 08:12:00,
2013-01-08 03:22:00,28.0,25.0,-100.00,SW,227,3.0,15.0,85,0.00,,,-99.99,,2013-01-08 08:22:00,
2013-01-08 03:32:00,27.0,25.0,-100.00,WSW,252,3.0,15.0,85,0.00,,,-99.99,,2013-01-08 08:32:00,
2013-01-08 03:42:00,26.0,23.0,-100.00,West,264,2.0,15.0,84,0.00,,,-99.99,,2013-01-08 08:42:00,
2013-01-08 03:52:00,25.0,23.0,-100.00,WSW,251,2.0,15.0,85,0.00,,,-99.99,,2013-01-08 08:52:00,
2013-01-08 04:02:00,25.0,23.0,-100.00,WSW,242,4.0,15.0,85,0.00,,,-99.99,,2013-01-08 09:02:00,
2013-01-08 04:12:00,25.0,23.0,-100.00,WSW,244,5.0,15.0,85,0.00,,,-99.99,,2013-01-08 09:12:00,
2013-01-08 04:22:00,24.0,21.0,-100.00,SW,235,6.0,15.0,85,0.00,,,-99.99,,2013-01-08 09:22:00,
2013-01-08 04:32:00,24.0,21.0,-100.00,SW,232,6.0,15.0,85,0.00,,,-99.99,,2013-01-08 09:32:00,
2013-01-08 04:42:00,24.0,21.0,-100.00,WSW,238,5.0,15.0,86,0.00,,,-99.99,,2013-01-08 09:42:00,
2013-01-08 04:52:00,24.0,21.0,-100.00,WSW,247,6.0,15.0,86,0.00,,,-99.99,,2013-01-08 09:52:00,
2013-01-08 05:02:00,24.0,21.0,-100.00,SW,230,6.0,15.0,86,0.00,,,-99.99,,2013-01-08 10:02:00,
2013-01-08 05:12:00,24.0,23.0,-100.00,WSW,242,7.0,15.0,88,0.00,,,-99.99,,2013-01-08 10:12:00,
2013-01-08 05:22:00,24.0,21.0,-100.00,SW,220,7.0,15.0,88,0.00,,,-99.99,,2013-01-08 10:22:00,
2013-01-08 05:33:00,24.0,23.0,-100.00,SW,220,7.0,15.0,88,0.00,,,-99.99,,2013-01-08 10:33:00,
2013-01-08 05:42:00,24.0,21.0,-100.00,SW,230,7.0,15.0,88,0.00,,,-99.99,,2013-01-08 10:42:00,
2013-01-08 05:52:00,24.0,23.0,-100.00,SW,232,7.0,15.0,88,0.00,,,-99.99,,2013-01-08 10:52:00,
2013-01-08 06:02:00,24.0,23.0,-100.00,WSW,241,5.0,15.0,88,0.00,,,-99.99,,2013-01-08 11:02:00,
2013-01-08 06:12:00,24.0,21.0,-100.00,SW,232,4.0,15.0,88,0.00,,,-99.99,,2013-01-08 11:12:00,
2013-01-08 06:22:00,24.0,21.0,-100.00,SW,225,5.0,15.0,88,0.00,,,-99.99,,2013-01-08 11:22:00,
2013-01-08 06:33:00,24.0,21.0,-100.00,SW,224,4.0,15.0,88,0.00,,,-99.99,,2013-01-08 11:33:00,
2013-01-08 06:42:00,24.0,23.0,-100.00,WSW,242,5.0,15.0,88,0.00,,,-99.99,,2013-01-08 11:42:00,
2013-01-08 06:53:00,24.0,23.0,-100.00,SW,232,6.0,15.0,88,0.00,,,-99.99,,2013-01-08 11:53:00,
2013-01-08 07:03:00,25.0,23.0,-100.00,SW,228,4.0,15.0,88,0.00,,,-99.99,,2013-01-08 12:03:00,
2013-01-08 07:12:00,24.0,21.0,-100.00,SSW,192,4.0,15.0,86,0.00,,,-99.99,,2013-01-08 12:12:00,
2013-01-08 07:22:00,25.0,21.0,-100.00,SW,217,4.0,15.0,86,0.00,,,-99.99,,2013-01-08 12:22:00,
2013-01-08 07:33:00,25.0,21.0,-100.00,SW,221,4.0,15.0,86,0.00,,,-99.99,,2013-01-08 12:33:00,
2013-01-08 07:43:00,25.0,21.0,-100.00,SW,220,5.0,15.0,86,0.00,,,-99.99,,2013-01-08 12:43:00,
2013-01-08 07:53:00,25.0,23.0,-100.00,SW,230,4.0,15.0,86,0.00,,,-99.99,,2013-01-08 12:53:00,
2013-01-08 08:03:00,25.0,21.0,-100.00,WSW,242,4.0,15.0,85,0.00,,,-99.99,,2013-01-08 13:03:00,
2013-01-08 08:13:00,25.0,21.0,-100.00,WSW,248,5.0,15.0,85,0.00,,,-99.99,,2013-01-08 13:13:00,
2013-01-08 08:22:00,25.0,21.0,-100.00,SW,225,5.0,15.0,85,0.00,,,-99.99,,2013-01-08 13:22:00,
2013-01-08 08:33:00,25.0,21.0,-100.00,SW,227,4.0,15.0,85,0.00,,,-99.99,,2013-01-08 13:33:00,
2013-01-08 08:43:00,25.0,21.0,-100.00,SW,223,4.0,15.0,85,0.00,,,-99.99,,2013-01-08 13:43:00,
2013-01-08 08:52:00,25.0,21.0,-100.00,SW,221,5.0,15.0,84,0.00,,,-99.99,,2013-01-08 13:52:00,
2013-01-08 09:02:00,25.0,23.0,-100.00,SSW,210,5.0,15.0,85,0.00,,,-99.99,,2013-01-08 14:02:00,
2013-01-08 09:13:00,25.0,21.0,-100.00,SW,224,4.0,15.0,84,0.00,,,-99.99,,2013-01-08 14:13:00,
2013-01-08 09:23:00,26.0,23.0,-100.00,SW,223,5.0,15.0,84,0.00,,,-99.99,,2013-01-08 14:23:00,
2013-01-08 09:33:00,26.0,23.0,-100.00,SW,223,6.0,15.0,82,0.00,,,-99.99,,2013-01-08 14:33:00,
2013-01-08 09:43:00,26.0,21.0,-100.00,WSW,242,6.0,15.0,82,0.00,,,-99.99,,2013-01-08 14:43:00,
2013-01-08 09:53:00,29.0,25.0,-100.00,WSW,251,3.0,15.0,81,0.00,,,-99.99,,2013-01-08 14:53:00,
2013-01-08 10:03:00,28.0,23.0,-100.00,WSW,247,6.0,15.0,80,0.00,,,-99.99,,2013-01-08 15:03:00,
2013-01-08 10:12:00,28.0,23.0,-100.00,SSW,207,6.0,15.0,78,0.00,,,-99.99,,2013-01-08 15:12:00,
2013-01-08 10:22:00,30.0,27.0,-100.00,WSW,248,6.0,15.0,80,0.00,,,-99.99,,2013-01-08 15:22:00,
2013-01-08 10:33:00,29.0,23.0,-100.00,WSW,238,7.0,15.0,77,0.00,,,-99.99,,2013-01-08 15:33:00,
2013-01-08 10:43:00,30.0,25.0,-100.00,West,265,7.0,15.0,76,0.00,,,-99.99,,2013-01-08 15:43:00,
2013-01-08 10:53:00,32.0,27.0,-100.00,WSW,252,7.0,15.0,75,0.00,,,-99.99,,2013-01-08 15:53:00,
2013-01-08 11:03:00,31.0,25.0,-100.00,WSW,255,7.0,15.0,75,0.00,,,-99.99,,2013-01-08 16:03:00,
2013-01-08 11:13:00,31.0,25.0,-100.00,WSW,255,8.0,15.0,72,0.00,,,-99.99,,2013-01-08 16:13:00,
2013-01-08 11:23:00,31.0,25.0,-100.00,WNW,302,7.0,15.0,72,0.00,,,-99.99,,2013-01-08 16:23:00,
2013-01-08 11:34:00,33.0,27.0,-100.00,West,269,8.0,15.0,72,0.00,,,-99.99,,2013-01-08 16:34:00,
2013-01-08 11:43:00,32.0,25.0,-100.00,West,266,9.0,15.0,71,0.00,,,-99.99,,2013-01-08 16:43:00,
2013-01-08 11:52:00,34.0,25.0,-100.00,West,271,7.0,15.0,69,0.00,,,-99.99,,2013-01-08 16:52:00,
2013-01-08 12:03:00,34.0,25.0,-100.00,West,273,7.0,15.0,68,0.00,,,-99.99,,2013-01-08 17:03:00,
2013-01-08 12:13:00,34.0,25.0,-100.00,West,265,6.0,15.0,68,0.00,,,-99.99,,2013-01-08 17:13:00,
2013-01-08 12:23:00,35.0,27.0,-100.00,SW,221,6.0,15.0,67,0.00,,,-99.99,,2013-01-08 17:23:00,
2013-01-08 12:34:00,36.0,27.0,-100.00,West,268,7.0,15.0,67,0.00,,,-99.99,,2013-01-08 17:34:00,
2013-01-08 12:43:00,36.0,27.0,-100.00,West,259,8.0,15.0,66,0.00,,,-99.99,,2013-01-08 17:43:00,
2013-01-08 12:53:00,36.0,27.0,-100.00,West,279,9.0,15.0,66,0.00,,,-99.99,,2013-01-08 17:53:00,
2013-01-08 13:04:00,36.0,27.0,-100.00,WSW,256,11.0,15.0,66,0.00,,,-99.99,,2013-01-08 18:04:00,
2013-01-08 13:13:00,36.0,27.0,-100.00,West,265,8.0,15.0,64,0.00,,,-99.99,,2013-01-08 18:13:00,
2013-01-08 13:23:00,37.0,27.0,-100.00,West,268,6.0,15.0,64,0.00,,,-99.99,,2013-01-08 18:23:00,
2013-01-08 13:33:00,37.0,27.0,-100.00,WSW,252,7.0,15.0,64,0.00,,,-99.99,,2013-01-08 18:33:00,
2013-01-08 13:43:00,37.0,27.0,-100.00,West,264,7.0,15.0,64,0.00,,,-99.99,,2013-01-08 18:43:00,
2013-01-08 13:53:00,38.0,27.0,-100.00,SSW,210,7.0,15.0,63,0.00,,,-99.99,,2013-01-08 18:53:00,
2013-01-08 14:03:00,38.0,27.0,-100.00,WSW,242,8.0,15.0,63,0.00,,,-99.99,,2013-01-08 19:03:00,
2013-01-08 14:12:00,39.0,28.0,-100.00,West,265,8.0,15.0,62,0.00,,,-99.99,,2013-01-08 19:12:00,
2013-01-08 14:23:00,39.0,28.0,-100.00,WNW,295,6.0,15.0,62,0.00,,,-99.99,,2013-01-08 19:23:00,
2013-01-08 14:33:00,38.0,27.0,-100.00,West,261,6.0,15.0,62,0.00,,,-99.99,,2013-01-08 19:33:00,
2013-01-08 14:43:00,40.0,28.0,-100.00,West,261,5.0,15.0,62,0.00,,,-99.99,,2013-01-08 19:43:00,
2013-01-08 14:53:00,38.0,27.0,-100.00,WSW,247,6.0,15.0,62,0.00,,,-99.99,,2013-01-08 19:53:00,
2013-01-08 15:03:00,38.0,27.0,-100.00,SW,225,5.0,15.0,62,0.00,,,-99.99,,2013-01-08 20:03:00,
2013-01-08 15:12:00,38.0,28.0,-100.00,SW,231,7.0,15.0,63,0.00,,,-99.99,,2013-01-08 20:12:00,
2013-01-08 15:23:00,39.0,28.0,-100.00,WSW,248,7.0,15.0,63,0.00,,,-99.99,,2013-01-08 20:23:00,
2013-01-08 15:33:00,40.0,28.0,-100.00,WSW,251,6.0,15.0,62,0.00,,,-99.99,,2013-01-08 20:33:00,
2013-01-08 15:43:00,40.0,28.0,-100.00,WSW,245,7.0,15.0,60,0.00,,,-99.99,,2013-01-08 20:43:00,
2013-01-08 15:53:00,40.0,28.0,-100.00,West,269,7.0,15.0,60,0.00,,,-99.99,,2013-01-08 20:53:00,
2013-01-08 16:03:00,40.0,28.0,-100.00,WSW,251,7.0,15.0,60,0.00,,,-99.99,,2013-01-08 21:03:00,
2013-01-08 16:13:00,40.0,28.0,-100.00,SW,223,8.0,15.0,62,0.00,,,-99.99,,2013-01-08 21:13:00,
2013-01-08 16:23:00,40.0,28.0,-100.00,WSW,238,9.0,15.0,62,0.00,,,-99.99,,2013-01-08 21:23:00,
2013-01-08 16:33:00,40.0,30.0,-100.00,WSW,252,7.0,15.0,63,0.00,,,-99.99,,2013-01-08 21:33:00,
2013-01-08 16:43:00,40.0,28.0,-100.00,SW,214,9.0,15.0,63,0.00,,,-99.99,,2013-01-08 21:43:00,
2013-01-08 16:53:00,39.0,28.0,-100.00,WSW,241,7.0,15.0,64,0.00,,,-99.99,,2013-01-08 21:53:00,
2013-01-08 17:03:00,40.0,30.0,-100.00,WSW,240,6.0,15.0,64,0.00,,,-99.99,,2013-01-08 22:03:00,
2013-01-08 17:12:00,39.0,28.0,-100.00,SW,221,6.0,15.0,64,0.00,,,-99.99,,2013-01-08 22:12:00,
2013-01-08 17:23:00,39.0,30.0,-100.00,SW,223,7.0,15.0,66,0.00,,,-99.99,,2013-01-08 22:23:00,
2013-01-08 17:33:00,40.0,30.0,-100.00,WSW,238,6.0,15.0,66,0.00,,,-99.99,,2013-01-08 22:33:00,
2013-01-08 17:43:00,39.0,30.0,-100.00,WSW,240,5.0,15.0,66,0.00,,,-99.99,,2013-01-08 22:43:00,
2013-01-08 17:52:00,39.0,30.0,-100.00,SW,234,6.0,15.0,66,0.00,,,-99.99,,2013-01-08 22:52:00,
2013-01-08 18:03:00,39.0,30.0,-100.00,SW,228,6.0,15.0,66,0.00,,,-99.99,,2013-01-08 23:03:00,
2013-01-08 18:13:00,39.0,30.0,-100.00,SW,230,4.0,15.0,67,0.00,,,-99.99,,2013-01-08 23:13:00,
2013-01-08 18:22:00,38.0,30.0,-100.00,WSW,238,4.0,15.0,68,0.00,,,-99.99,,2013-01-08 23:22:00,
2013-01-08 18:33:00,38.0,28.0,-100.00,SW,231,4.0,15.0,68,0.00,,,-99.99,,2013-01-08 23:33:00,
2013-01-08 18:43:00,38.0,28.0,-100.00,SW,228,3.0,15.0,68,0.00,,,-99.99,,2013-01-08 23:43:00,
2013-01-08 18:52:00,37.0,28.0,-100.00,SSW,207,3.0,15.0,71,0.00,,,-99.99,,2013-01-08 23:52:00,
2013-01-08 19:03:00,36.0,28.0,-100.00,SSW,206,3.0,15.0,72,0.00,,,-99.99,,2013-01-09 00:03:00,
2013-01-08 19:13:00,36.0,28.0,-100.00,SSW,204,4.0,15.0,73,0.00,,,-99.99,,2013-01-09 00:13:00,
2013-01-08 19:22:00,34.0,27.0,-100.00,SW,214,4.0,15.0,72,0.00,,,-99.99,,2013-01-09 00:22:00,
2013-01-08 19:33:00,35.0,28.0,-100.00,SSW,203,5.0,15.0,75,0.00,,,-99.99,,2013-01-09 00:33:00,
2013-01-08 19:43:00,35.0,28.0,-100.00,SSW,201,6.0,15.0,75,0.00,,,-99.99,,2013-01-09 00:43:00,
2013-01-08 19:52:00,36.0,30.0,-100.00,SSW,204,6.0,15.0,75,0.00,,,-99.99,,2013-01-09 00:52:00,
2013-01-08 20:02:00,36.0,30.0,-100.00,SSW,213,6.0,15.0,75,0.00,,,-99.99,,2013-01-09 01:02:00,
2013-01-08 20:12:00,34.0,28.0,-100.00,SSW,194,6.0,15.0,76,0.00,,,-99.99,,2013-01-09 01:12:00,
2013-01-08 20:22:00,34.0,28.0,-100.00,South,189,5.0,15.0,75,0.00,,,-99.99,,2013-01-09 01:22:00,
2013-01-08 20:33:00,35.0,28.0,-100.00,SSW,203,6.0,15.0,76,0.00,,,-99.99,,2013-01-09 01:33:00,
2013-01-08 20:42:00,35.0,28.0,-100.00,SSW,201,6.0,15.0,76,0.00,,,-99.99,,2013-01-09 01:42:00,
2013-01-08 20:52:00,34.0,28.0,-100.00,SW,214,7.0,15.0,76,0.00,,,-99.99,,2013-01-09 01:52:00,
2013-01-08 21:02:00,34.0,28.0,-100.00,SW,214,7.0,15.0,76,0.00,,,-99.99,,2013-01-09 02:02:00,
2013-01-08 21:12:00,34.0,28.0,-100.00,SSW,197,6.0,15.0,77,0.00,,,-99.99,,2013-01-09 02:12:00,
2013-01-08 21:22:00,34.0,28.0,-100.00,SW,216,6.0,15.0,77,0.00,,,-99.99,,2013-01-09 02:22:00,
2013-01-08 21:33:00,34.0,28.0,-100.00,SSW,207,6.0,15.0,77,0.00,,,-99.99,,2013-01-09 02:33:00,
2013-01-08 21:43:00,34.0,28.0,-100.00,SW,221,7.0,15.0,78,0.00,,,-99.99,,2013-01-09 02:43:00,
2013-01-08 21:52:00,34.0,28.0,-100.00,SW,214,8.0,15.0,77,0.00,,,-99.99,,2013-01-09 02:52:00,
2013-01-08 22:03:00,36.0,30.0,-100.00,SW,217,7.0,7.0,78,0.00,,,-99.99,,2013-01-09 03:03:00,
2013-01-08 22:12:00,36.0,30.0,-100.00,SW,217,7.0,7.0,78,0.00,,,-99.99,,2013-01-09 03:12:00,
2013-01-08 22:22:00,37.0,32.0,-100.00,SSW,213,8.0,10.0,77,0.00,,,-99.99,,2013-01-09 03:22:00,
2013-01-08 22:33:00,37.0,30.0,-100.00,SSW,194,9.0,10.0,76,0.00,,,-99.99,,2013-01-09 03:33:00,
2013-01-08 22:43:00,37.0,32.0,-100.00,SSW,210,10.0,12.0,77,0.00,,,-99.99,,2013-01-09 03:43:00,
2013-01-08 22:52:00,37.0,30.0,-100.00,SW,218,10.0,12.0,76,0.00,,,-99.99,,2013-01-09 03:52:00,
2013-01-08 23:02:00,38.0,32.0,-100.00,SW,221,9.0,12.0,75,0.00,,,-99.99,,2013-01-09 04:02:00,
2013-01-08 23:12:00,38.0,30.0,-100.00,SW,221,7.0,12.0,73,0.00,,,-99.99,,2013-01-09 04:12:00,
2013-01-08 23:22:00,38.0,30.0,-100.00,SW,224,7.0,12.0,73,0.00,,,-99.99,,2013-01-09 04:22:00,
2013-01-08 23:33:00,38.0,30.0,-100.00,SW,223,7.0,12.0,73,0.00,,,-99.99,,2013-01-09 04:33:00,
2013-01-08 23:43:00,38.0,30.0,-100.00,SW,234,8.0,12.0,73,0.00,,,-99.99,,2013-01-09 04:43:00,
2013-01-08 23:52:00,38.0,30.0,-100.00,WSW,237,8.0,12.0,73,0.00,,,-99.99,,2013-01-09 04:52:00,